When you browse on this site, cookies collect data to enhance your experience and personalize the content and advertising you see.
Visit our Privacy Policy to learn more. By continuing to use the site, you agree to this use of cookies and data.
  • In Latvia
  • List of Countries
  • For 7 days
  • Water Temperature
  • Satellite Maps
  • Weather Map
  • Weather Widgets
  • user-avatar
    Login

    Hourly Weather Olten

    Today, 17 July, Wednesday

    Time Temperature Precipitation Wind Pressure Humidity
    00:00 +14°C° 0 mm 0 mps 717 mmHg 86%
    01:00 +14°C° 0 mm 0 mps 717 mmHg 88%
    02:00 +13°C° 0 mm 0 mps 717 mmHg 89%
    03:00 +13°C° 0 mm 0 mps 716 mmHg 90%
    04:00 +13°C° 0 mm 0 mps 716 mmHg 91%
    05:00 +14°C° 0 mm 0 mps 716 mmHg 87%
    06:00 +15°C° 0 mm 0 mps 716 mmHg 84%
    07:00 +17°C° 0 mm 0 mps 717 mmHg 77%
    08:00 +19°C° 0 mm 0 mps 717 mmHg 69%
    09:00 +22°C° 0 mm 0 mps 717 mmHg 62%
    10:00 +26°C° 0 mm 1 mps 717 mmHg 54%
    11:00 +27°C° 0 mm 1 mps 717 mmHg 50%
    12:00 +27°C° 0 mm 2 mps 717 mmHg 45%
    13:00 +28°C° 0 mm 3 mps 717 mmHg 40%
    14:00 +27°C° 0 mm 3 mps 716 mmHg 40%
    15:00 +27°C° 0 mm 3 mps 716 mmHg 40%
    16:00 +27°C° 0 mm 3 mps 716 mmHg 40%
    17:00 +26°C° 0 mm 3 mps 716 mmHg 47%
    18:00 +24°C° 0 mm 2 mps 716 mmHg 54%
    19:00 +23°C° 0 mm 1 mps 716 mmHg 61%
    20:00 +21°C° 0 mm 1 mps 716 mmHg 64%
    21:00 +19°C° 0 mm 1 mps 716 mmHg 68%
    22:00 +18°C° 0 mm 1 mps 716 mmHg 72%
    23:00 +16°C° 0 mm 1 mps 716 mmHg 72%

    Tomorrow, 18 July, Thursday

    Time Temperature Precipitation Wind Pressure Humidity
    00:00 +16°C° 0 mm 1 mps 716 mmHg 73%
    01:00 +15°C° 0 mm 0 mps 715 mmHg 74%
    02:00 +15°C° 0 mm 1 mps 715 mmHg 76%
    03:00 +15°C° 0 mm 1 mps 715 mmHg 78%
    04:00 +14°C° 0 mm 1 mps 715 mmHg 79%
    05:00 +15°C° 0 mm 1 mps 715 mmHg 77%
    06:00 +16°C° 0 mm 1 mps 715 mmHg 75%
    07:00 +18°C° 0 mm 1 mps 715 mmHg 73%
    08:00 +20°C° 0 mm 1 mps 716 mmHg 65%
    09:00 +23°C° 0 mm 1 mps 716 mmHg 56%
    10:00 +25°C° 0 mm 2 mps 716 mmHg 48%
    11:00 +25°C° 0 mm 2 mps 716 mmHg 46%
    12:00 +26°C° 0 mm 2 mps 716 mmHg 45%
    13:00 +26°C° 0 mm 2 mps 716 mmHg 43%
    14:00 +26°C° 0 mm 2 mps 716 mmHg 43%
    15:00 +27°C° 0 mm 2 mps 716 mmHg 43%
    16:00 +27°C° 0 mm 2 mps 716 mmHg 43%
    17:00 +25°C° 0 mm 2 mps 716 mmHg 51%
    18:00 +24°C° 0 mm 1 mps 716 mmHg 58%
    19:00 +23°C° 0 mm 1 mps 716 mmHg 66%
    20:00 +21°C° 0.1 mm 1 mps 716 mmHg 72%
    21:00 +20°C° 0.1 mm 1 mps 717 mmHg 78%
    22:00 +16°C° 0.1 mm 0 mps 717 mmHg 84%
    23:00 +16°C° 0 mm 0 mps 717 mmHg 86%

    Day after tomorrow, 19 July, Friday

    Time Temperature Precipitation Wind Pressure Humidity
    00:00 +15°C° 0 mm 0 mps 717 mmHg 87%
    01:00 +15°C° 0 mm 0 mps 717 mmHg 88%
    02:00 +15°C° 0 mm 0 mps 717 mmHg 90%
    03:00 +14°C° 0 mm 0 mps 717 mmHg 91%
    04:00 +14°C° 0 mm 0 mps 717 mmHg 93%
    05:00 +14°C° 0 mm 0 mps 717 mmHg 91%
    06:00 +15°C° 0 mm 0 mps 717 mmHg 89%
    07:00 +16°C° 0 mm 0 mps 718 mmHg 87%
    08:00 +19°C° 0.1 mm 0 mps 718 mmHg 78%
    09:00 +23°C° 0.1 mm 1 mps 718 mmHg 69%
    10:00 +25°C° 0.1 mm 1 mps 718 mmHg 60%
    11:00 +26°C° 0.1 mm 1 mps 718 mmHg 56%
    12:00 +26°C° 0.1 mm 2 mps 718 mmHg 52%
    13:00 +27°C° 0.1 mm 2 mps 718 mmHg 48%
    14:00 +27°C° 0 mm 2 mps 718 mmHg 48%
    15:00 +27°C° 0 mm 2 mps 718 mmHg 49%
    16:00 +27°C° 0 mm 2 mps 718 mmHg 49%
    17:00 +26°C° 0 mm 2 mps 718 mmHg 56%
    18:00 +25°C° 0 mm 2 mps 718 mmHg 64%
    19:00 +24°C° 0 mm 1 mps 718 mmHg 71%
    20:00 +22°C° 0 mm 1 mps 718 mmHg 77%
    21:00 +20°C° 0 mm 1 mps 718 mmHg 83%
    22:00 +16°C° 0 mm 0 mps 718 mmHg 89%
    23:00 +16°C° 0 mm 0 mps 718 mmHg 90%

    20 July, Saturday

    Time Temperature Precipitation Wind Pressure Humidity
    00:00 +15°C° 0 mm 0 mps 717 mmHg 91%
    01:00 +15°C° 0 mm 0 mps 717 mmHg 92%
    02:00 +15°C° 0 mm 0 mps 717 mmHg 93%
    03:00 +15°C° 0 mm 1 mps 717 mmHg 93%
    04:00 +15°C° 0 mm 1 mps 717 mmHg 94%
    05:00 +16°C° 0 mm 1 mps 717 mmHg 90%
    06:00 +18°C° 0 mm 1 mps 717 mmHg 87%
    07:00 +19°C° 0 mm 1 mps 717 mmHg 83%
    08:00 +22°C° 0 mm 1 mps 718 mmHg 73%
    09:00 +25°C° 0 mm 1 mps 718 mmHg 62%
    10:00 +27°C° 0 mm 1 mps 719 mmHg 52%
    11:00 +28°C° 0 mm 2 mps 719 mmHg 47%
    12:00 +29°C° 0 mm 3 mps 719 mmHg 43%
    13:00 +30°C° 0 mm 4 mps 719 mmHg 38%
    14:00 +32°C° 0 mm 4 mps 719 mmHg 38%
    15:00 +32°C° 0 mm 4 mps 719 mmHg 38%
    16:00 +32°C° 0 mm 4 mps 719 mmHg 38%
    17:00 +29°C° 0 mm 3 mps 719 mmHg 48%
    18:00 +27°C° 0 mm 2 mps 719 mmHg 57%
    19:00 +26°C° 0 mm 1 mps 719 mmHg 67%
    20:00 +24°C° 0 mm 1 mps 719 mmHg 71%
    21:00 +22°C° 0 mm 1 mps 719 mmHg 75%
    22:00 +21°C° 0 mm 1 mps 720 mmHg 79%
    23:00 +20°C° 0.1 mm 1 mps 720 mmHg 81%

    21 July, Sunday

    Time Temperature Precipitation Wind Pressure Humidity
    00:00 +20°C° 0.1 mm 1 mps 720 mmHg 83%
    01:00 +20°C° 0.1 mm 1 mps 720 mmHg 85%
    02:00 +19°C° 0 mm 1 mps 720 mmHg 86%
    03:00 +19°C° 0 mm 1 mps 720 mmHg 86%
    04:00 +19°C° 0 mm 1 mps 720 mmHg 87%
    05:00 +19°C° 0.2 mm 1 mps 720 mmHg 87%
    06:00 +20°C° 0.2 mm 1 mps 720 mmHg 87%
    07:00 +20°C° 0.2 mm 1 mps 721 mmHg 87%
    08:00 +23°C° 0.2 mm 1 mps 721 mmHg 78%
    09:00 +25°C° 0.2 mm 1 mps 722 mmHg 69%
    10:00 +27°C° 0.2 mm 1 mps 722 mmHg 60%
    11:00 +28°C° 0 mm 1 mps 722 mmHg 55%
    12:00 +30°C° 0 mm 2 mps 722 mmHg 50%
    13:00 +31°C° 0 mm 2 mps 722 mmHg 45%
    14:00 +31°C° 0 mm 2 mps 722 mmHg 46%
    15:00 +31°C° 0 mm 2 mps 722 mmHg 46%
    16:00 +31°C° 0 mm 2 mps 722 mmHg 47%
    17:00 +29°C° 0 mm 2 mps 722 mmHg 55%
    18:00 +28°C° 0 mm 1 mps 722 mmHg 63%
    19:00 +26°C° 0 mm 1 mps 722 mmHg 71%
    20:00 +25°C° 0 mm 1 mps 722 mmHg 75%
    21:00 +23°C° 0 mm 1 mps 722 mmHg 78%
    22:00 +19°C° 0 mm 0 mps 722 mmHg 82%
    23:00 +19°C° 0 mm 0 mps 722 mmHg 85%

    22 July, Monday

    Time Temperature Precipitation Wind Pressure Humidity
    00:00 +18°C° 0 mm 0 mps 721 mmHg 87%
    01:00 +17°C° 0 mm 0 mps 721 mmHg 90%
    02:00 +17°C° 0 mm 0 mps 721 mmHg 91%
    03:00 +17°C° 0 mm 0 mps 721 mmHg 92%
    04:00 +16°C° 0 mm 0 mps 721 mmHg 93%
    05:00 +17°C° 0 mm 0 mps 721 mmHg 90%
    06:00 +19°C° 0 mm 0 mps 721 mmHg 86%
    07:00 +20°C° 0 mm 0 mps 721 mmHg 83%
    08:00 +22°C° 0 mm 0 mps 721 mmHg 74%
    09:00 +25°C° 0 mm 0 mps 721 mmHg 64%
    10:00 +28°C° 0 mm 0 mps 722 mmHg 55%
    11:00 +30°C° 0 mm 0 mps 722 mmHg 50%
    12:00 +31°C° 0 mm 0 mps 721 mmHg 44%
    13:00 +33°C° 0 mm 0 mps 721 mmHg 39%
    14:00 +35°C° 0 mm 1 mps 721 mmHg 39%
    15:00 +35°C° 0 mm 1 mps 721 mmHg 39%
    16:00 +34°C° 0 mm 1 mps 721 mmHg 39%
    17:00 +32°C° 0 mm 1 mps 721 mmHg 49%
    18:00 +30°C° 0 mm 1 mps 720 mmHg 58%
    19:00 +29°C° 0 mm 1 mps 720 mmHg 68%
    20:00 +27°C° 0.2 mm 1 mps 720 mmHg 74%
    21:00 +25°C° 0.2 mm 1 mps 720 mmHg 80%
    22:00 +21°C° 0.2 mm 0 mps 720 mmHg 85%
    23:00 +20°C° 0 mm 0 mps 720 mmHg 87%
    Show more